DECAYED

STARLINK-30234, 57297 (Decayed)

Orbit data source: Space-Track

STARLINK-30234, 57297 was a payload satellite owned by SpaceX/Seattle (US) in LEO that was launched on Mon, 10 Jul 2023 UTC via an FALCON 9 launch vehicle from the Air Force Eastern Test Range (AFETR). Payload-class satellites include a variety of spacecraft equipped with specific instruments for various scientific and technological missions. These include communications satellites like Starlink; space stations such as the ISS; scientific satellites like the Hubble; Earth observation satellites from companies like Planet Labs, Umbra, and HawkEye 360; GPS; miniature CubeSats for education and research; and military/defense satellites.

Not visible in the next 10 days
Identifier
57297, 2023-096H
Orbit
Decayed
Country
Flag of USUS
Related business
Manufacturer
SpaceX/Seattle
Mission
Decayed Commercial Communications
Bus & Motor
STARLINK V2M, Unknown motor
Mass
730 kg wet, ~700 kg dry
Launch date (UTC)
2023-07-10 (3 years ago)
Launch vehicle
FALCON 9
Launch site
Air Force Eastern Test Range (AFETR)
Object type
Payload
Rocket body
Debris
Shape & HBR
Box + 2 Pan, 17.7 m
Radar Cross Section
33.884 m², Large (>1 m²)

Expand to show TLE details & history
Last TLE update: 10 months ago

TLE from 10 months ago
0 STARLINK-30234
1 57297U 23096H   25312.53855686  .05265335  69809-1  53739-2 0  9990
2 57297  42.9655  84.7923 0015811 339.8688  20.1570 16.14319093130283
Epoch: 2025-11-08T12:55Z
TLE epoch observation values (Epoch: 2025-11-08T12:55:31.312Z)
Latitude
-0.00002°
Longitude
-157.05492°
Altitude
224.972 km
Speed
7.779 km/s
True Right ascension
05h 39m 10s
True Declination
0° 00' 00"
Sunlit
Object was in full shadow at epoch
Visualization orbit readout
Latitude
Unknown
Longitude
Unknown
Altitude
Unknown
Speed
Unknown
Apparent Right ascension
Unknown
Apparent Declination
Unknown
Sunlit
N/A
Visualization observer readout
Local Sidereal Time
11:43:59
Azimuth
Unknown
Elevation
Unknown
Doppler factor
Unknown
Orbital elements
Apogee altitude
247.504 km
Perigee altitude
226.586 km
Semi-major axis
6,615.182 km
Eccentricity
0.00158
Inclination
42.9655°
RAAN
84.7923°
Arg. of periapsis
339.8688°
True anomaly
20.21955°
Mean anomaly
20.157°
Eccentric anomaly
20.18826°
Mean motion
4.03395 °/min
Orbital period
89.24 mins
BSTAR
0.0053739
Loading maneuver chart data...
Computing Atmospheric mass density...

Documentation

Showing up to 5 results
|